Location: Buckland
(65.9785°N, 161.1281°W)
Time: 03:58:37
(UTC+00:00)

Transit 4A - Pass Details

Date: 02 December 2020
Orbit: 864 x 980 km, 66.8° (Epoch: 26 January)

Event Time Altitude Azimuth Distance (km) Brightness Sun altitude
Rises 22:14:00 0° 270° (W) 3,685 11.0 1.8°
Reaches altitude 10° 22:16:35 10° 271° (W) 2,740 10.3 1.8°
Maximum altitude 22:23:03 83° 0° (N) 995 8.1 1.9°
Drops below altitude 10° 22:29:27 10° 90° (E) 2,718 10.4 1.9°
Sets 22:32:00 0° 91° (E) 3,653 11.0 1.9°
